Weather History for Merrill, WI

Change the Weather History Date:

Thursday, November 21, 2013

  Actual Average Record
Temperature  
Mean Temperature 32 °F -  
Max Temperature 34 °F 36 °F 61 °F (1913)
Min Temperature 28 °F 20 °F -1 °F (1978)
Degree Days  
Heating Degree Days 34    
Moisture  
Dew Point 31 °F    
Average Humidity 96    
Maximum Humidity 100    
Minimum Humidity 84    
Precipitation  
Precipitation 0.06 in - - ()
Sea Level Pressure  
Sea Level Pressure 30.16 in    
Wind  
Wind Speed 2 mph (North)    
Max Wind Speed 13 mph    
Max Gust Speed 18 mph    
Visibility 4 miles    
Events Fog , Snow    
Averages and records for this station are not official NWS values.
T = Trace of Precipitation, MM = Missing Value Source: NWS Daily Summary

Daily Weather History Graph

Daily Weather History Graph

Search for Another Location

Airport:

Trip Planner

Search our weather history database for the weather conditions in past years. The results will help you decide how hot, cold, wet, or windy it might be!

Date:

Astronomy

Nov. 21, 2013 Rise Set
Actual Time 7:05 AM CST 4:23 PM CST
Civil Twilight 6:32 AM CST 4:56 PM CST
Nautical Twilight 5:56 AM CST 5:32 PM CST
Astronomical Twilight 5:21 AM CST 6:07 PM CST
Moon 8:02 PM CST (11/21) 10:10 AM CST (11/21)
Length of Visible Light 10h 23m
Length of Day
9h 18m
Waning Gibbous, 85% of the Moon is Illuminated
Nov 21
Waning Gibbous
Nov 25
Last Quarter
Dec 2
New
Dec 9
First Quarter
Dec 17
Full

Hourly Weather History & Observations

Time (CST) Temp. Windchill Dew Point Humidity Pressure Visibility Wind Dir Wind Speed Gust Speed Precip Events Conditions
12:15 AM 32.4 °F - 32.0 °F 99% 30.06 in 2.5 mi Calm Calm - N/A   Overcast
12:35 AM 32.4 °F - 32.0 °F 99% 30.06 in 2.5 mi Calm Calm - N/A   Overcast
12:55 AM 32.4 °F - 32.0 °F 99% 30.07 in 2.5 mi Calm Calm - N/A   Overcast
1:15 AM 32.5 °F - 32.2 °F 99% 30.07 in 2.0 mi Calm Calm - N/A   Overcast
1:35 AM 32.4 °F - 32.2 °F 99% 30.07 in 1.8 mi Calm Calm - N/A   Overcast
1:55 AM 32.5 °F - 32.4 °F 99% 30.07 in 2.0 mi Calm Calm - N/A   Overcast
2:15 AM 32.4 °F - 32.2 °F 99% 30.07 in 1.8 mi Calm Calm - N/A   Overcast
2:35 AM 32.4 °F - 32.2 °F 99% 30.08 in 2.0 mi Calm Calm - N/A   Overcast
2:55 AM 32.4 °F - 32.2 °F 99% 30.07 in 1.8 mi Calm Calm - N/A   Overcast
3:15 AM 32.4 °F - 32.4 °F 100% 30.07 in 1.5 mi Calm Calm - N/A   Overcast
3:35 AM 32.4 °F - 32.4 °F 100% 30.07 in 1.5 mi Calm Calm - N/A   Overcast
3:55 AM 32.4 °F - 32.4 °F 100% 30.07 in 1.0 mi Calm Calm - N/A   Overcast
4:15 AM 32.4 °F - 32.4 °F 100% 30.08 in 1.0 mi Calm Calm - N/A   Overcast
4:35 AM 32.4 °F - 32.4 °F 100% 30.08 in 0.8 mi Calm Calm - N/A   Overcast
4:55 AM 32.4 °F - 32.4 °F 100% 30.08 in 0.5 mi Calm Calm - N/A Fog Fog
5:15 AM 32.4 °F - 32.4 °F 100% 30.08 in 0.5 mi Calm Calm - N/A Fog Fog
5:35 AM 32.2 °F - 32.2 °F 100% 30.08 in 0.5 mi Calm Calm - N/A Fog Fog
5:55 AM 32.0 °F - 32.0 °F 100% 30.07 in 0.2 mi Calm Calm - N/A Fog Fog
6:15 AM 32.2 °F - 32.2 °F 100% 30.09 in 0.2 mi Calm Calm - N/A Fog Fog
6:35 AM 32.2 °F - 32.2 °F 100% 30.10 in 0.2 mi Calm Calm - N/A Fog Fog
6:55 AM 32.2 °F - 32.2 °F 100% 30.10 in 0.2 mi Calm Calm - N/A Fog Fog
7:15 AM 32.4 °F - 32.4 °F 100% 30.11 in 0.2 mi Calm Calm - N/A Fog Fog
7:35 AM 32.4 °F - 32.4 °F 100% 30.12 in 0.2 mi Calm Calm - N/A Fog Fog
7:55 AM 32.4 °F - 32.4 °F 100% 30.12 in 0.2 mi Calm Calm - N/A Fog Fog
8:15 AM 32.4 °F - 32.4 °F 100% 30.12 in 0.2 mi Calm Calm - N/A Fog Fog
8:35 AM 32.5 °F - 32.5 °F 100% 30.13 in 0.2 mi Calm Calm - N/A Fog Fog
8:55 AM 32.9 °F - 32.9 °F 100% 30.14 in 0.2 mi Calm Calm - N/A Fog Fog
9:15 AM 32.9 °F - 32.9 °F 100% 30.14 in 0.2 mi Calm Calm - N/A Fog Fog
9:35 AM 32.9 °F - 32.9 °F 100% 30.14 in 0.2 mi Calm Calm - N/A Fog Fog
9:55 AM 32.9 °F - 32.9 °F 100% 30.13 in 0.2 mi Calm Calm - N/A Fog Fog
10:15 AM 32.9 °F - 32.9 °F 100% 30.14 in 0.2 mi Calm Calm - N/A Fog Fog
10:35 AM 33.1 °F - 33.1 °F 100% 30.15 in 0.2 mi Calm Calm - N/A Fog Fog
10:55 AM 33.1 °F - 33.1 °F 100% 30.15 in 1.0 mi Calm Calm - N/A   Overcast
11:15 AM 33.3 °F - 33.3 °F 100% 30.15 in 1.2 mi Calm Calm - N/A   Overcast
11:35 AM 33.4 °F - 33.4 °F 100% 30.15 in 2.0 mi Calm Calm - N/A   Overcast
11:55 AM 33.6 °F - 33.6 °F 100% 30.13 in 2.5 mi Calm Calm - N/A   Overcast
12:15 PM 33.8 °F - 33.8 °F 100% 30.12 in 2.5 mi Calm Calm - N/A   Overcast
12:35 PM 33.8 °F - 33.8 °F 100% 30.13 in 3.0 mi Calm Calm - N/A   Overcast
12:55 PM 34.0 °F - 33.8 °F 99% 30.14 in 4.0 mi Calm Calm - N/A   Overcast
1:15 PM 34.3 °F 30.2 °F 33.8 °F 98% 30.16 in 4.0 mi WSW 4.6 mph - N/A   Overcast
1:35 PM 34.2 °F - 33.8 °F 99% 30.15 in 4.0 mi Calm Calm - N/A   Overcast
1:55 PM 34.3 °F - 33.8 °F 98% 30.15 in 4.0 mi Calm Calm - N/A   Overcast
2:15 PM 34.3 °F - 33.8 °F 98% 30.17 in 5.0 mi Calm Calm - N/A   Overcast
2:35 PM 34.2 °F 30.0 °F 33.4 °F 97% 30.17 in 5.0 mi NNW 4.6 mph - N/A   Overcast
2:55 PM 34.0 °F - 33.8 °F 99% 30.17 in 1.8 mi Calm Calm - N/A   Overcast
3:15 PM 34.0 °F 31.0 °F 33.8 °F 99% 30.18 in 1.5 mi NNW 3.5 mph - N/A   Overcast
3:35 PM 33.8 °F 29.6 °F 33.8 °F 100% 30.18 in 2.0 mi NNW 4.6 mph - N/A   Overcast
3:55 PM 33.8 °F 27.7 °F 33.8 °F 100% 30.18 in 2.0 mi North 6.9 mph - N/A   Overcast
4:15 PM 33.8 °F 29.6 °F 33.8 °F 100% 30.19 in 2.5 mi North 4.6 mph - N/A   Overcast
4:35 PM 33.8 °F 27.7 °F 33.8 °F 100% 30.19 in 3.0 mi North 6.9 mph - N/A   Overcast
4:55 PM 33.8 °F 28.6 °F 33.4 °F 99% 30.20 in 3.0 mi North 5.8 mph - N/A   Overcast
5:15 PM 33.8 °F 28.6 °F 33.4 °F 99% 30.20 in 4.0 mi North 5.8 mph - N/A   Overcast
5:35 PM 33.8 °F 27.7 °F 32.9 °F 96% 30.21 in 7.0 mi North 6.9 mph - N/A   Overcast
5:55 PM 33.4 °F 24.3 °F 32.0 °F 94% 30.22 in 10.0 mi North 12.7 mph 17.3 mph N/A   Overcast
6:15 PM 32.9 °F 24.7 °F 31.5 °F 94% 30.22 in 10.0 mi North 10.4 mph 17.3 mph N/A   Overcast
6:35 PM 32.4 °F 25.3 °F 30.9 °F 94% 30.23 in 10.0 mi North 8.1 mph - N/A   Overcast
6:55 PM 32.2 °F 22.7 °F 29.8 °F 91% 30.23 in 10.0 mi North 12.7 mph 18.4 mph N/A   Overcast
7:15 PM 32.0 °F 22.5 °F 28.9 °F 88% 30.24 in 10.0 mi North 12.7 mph 18.4 mph N/A   Overcast
7:35 PM 31.8 °F 23.9 °F 28.0 °F 86% 30.25 in 10.0 mi North 9.2 mph - N/A   Overcast
7:55 PM 31.3 °F 22.1 °F 27.5 °F 86% 30.25 in 10.0 mi North 11.5 mph 16.1 mph N/A   Overcast
8:15 PM 30.9 °F 23.5 °F 26.6 °F 84% 30.26 in 10.0 mi North 8.1 mph 17.3 mph N/A   Overcast
8:35 PM 30.6 °F 22.4 °F 26.6 °F 85% 30.27 in 10.0 mi North 9.2 mph - N/A   Overcast
8:55 PM 30.2 °F 25.4 °F 26.4 °F 86% 30.27 in 10.0 mi North 4.6 mph - N/A   Overcast
9:15 PM 30.2 °F 23.4 °F 26.4 °F 86% 30.27 in 10.0 mi North 6.9 mph - N/A   Overcast
9:35 PM 30.0 °F 21.7 °F 26.4 °F 86% 30.27 in 10.0 mi North 9.2 mph - N/A   Overcast
9:55 PM 29.8 °F 22.2 °F 26.2 °F 86% 30.28 in 10.0 mi North 8.1 mph - N/A   Overcast
10:15 PM 29.8 °F 21.5 °F 26.2 °F 86% 30.29 in 10.0 mi North 9.2 mph - N/A   Overcast
10:35 PM 29.7 °F 20.1 °F 26.1 °F 86% 30.29 in 10.0 mi North 11.5 mph - N/A Snow Light Snow
10:55 PM 29.3 °F 21.5 °F 26.1 °F 88% 30.30 in 7.0 mi North 8.1 mph - N/A Snow Light Snow
11:15 PM 29.3 °F 21.5 °F 26.4 °F 89% 30.31 in 5.0 mi North 8.1 mph - N/A Snow Light Snow
11:35 PM 29.1 °F 20.6 °F 26.4 °F 90% 30.31 in 7.0 mi North 9.2 mph - N/A Snow Light Snow
11:55 PM 28.8 °F 19.5 °F 25.7 °F 88% 30.31 in 10.0 mi North 10.4 mph - N/A   Overcast